GW1682 Weather Reports


time (UTC)temp
C
wind
direction
speed
KPH
gust
KPH
rain 1hr
cm
rain 24hr
cm
rain mn
cm
humidity
%
barometer
mb
20260504030127 9 155 0.0 0.0 0.00 0.10 0.00 68 1017.4
20260504023122 9 159 0.0 3.2 0.00 0.10 0.00 66 1017.3
20260504021618 9 137 0.0 3.2 0.00 0.10 0.00 66 1017.3
20260504020135 10 169 0.0 3.2 0.00 0.10 0.00 65 1017.5
20260504014625 10 114 0.0 4.8 0.00 0.10 0.00 64 1017.6
20260504011611 10 48 3.2 6.4 0.00 0.10 0.00 62 1017.4
20260504010118 10 162 0.0 3.2 0.00 0.10 0.00 62 1017.4
20260504004610 10 148 1.6 4.8 0.00 0.10 0.00 62 1017.5
20260504003119 10 164 1.6 3.2 0.00 0.10 0.00 62 1017.4
20260504001613 10 175 3.2 6.4 0.00 0.10 0.00 61 1017.3
20260504000110 10 178 0.0 3.2 0.00 0.10 0.00 62 1017.5
20260503234612 10 90 1.6 4.8 0.00 0.10 0.00 62 1017.6
20260503233104 10 117 0.0 6.4 0.00 0.10 0.00 63 1017.5
20260503231602 10 185 0.0 3.2 0.00 0.10 0.00 63 1017.6
20260503230105 10 333 0.0 3.2 0.00 0.10 0.00 63 1017.5
20260503224607 10 336 1.6 6.4 0.00 0.13 0.00 62 1017.5
20260503223107 10 62 1.6 3.2 0.00 0.13 0.00 63 1017.4
20260503221602 10 333 0.0 3.2 0.00 0.13 0.00 64 1017.6
20260503220103 10 0 0.0 3.2 0.00 0.13 0.00 63 1017.6
20260503214602 10 0 1.6 6.4 0.00 0.13 0.00 61 1017.9
20260503211602 11 0 3.2 6.4 0.00 0.13 0.00 61 1017.6
20260503204602 11 338 0.0 8.0 0.00 0.13 0.13 61 1017.9
20260503203111 11 334 3.2 11.3 0.00 0.13 0.13 60 1017.9
20260503201603 11 295 6.4 14.5 0.00 0.13 0.13 60 1018.0
20260503194604 11 327 4.8 14.5 0.00 0.13 0.13 58 1017.8
20260503191602 11 336 8.0 19.3 0.00 0.13 0.13 57 1017.8
20260503184603 11 302 8.0 17.7 0.00 0.13 0.13 57 1017.4
20260503183102 11 3 6.4 16.1 0.00 0.13 0.13 58 1017.2
20260503181603 12 0 4.8 16.1 0.00 0.13 0.13 58 1017.0
20260503174603 12 329 3.2 11.3 0.00 0.13 0.13 56 1016.7
20260503173104 12 0 4.8 16.1 0.00 0.13 0.13 55 1016.4
20260503171602 12 312 4.8 17.7 0.00 0.13 0.13 54 1016.5
20260503160106 12 8 12.9 22.5 0.00 0.13 0.13 53 1015.6
20260503140110 13 0 12.9 27.4 0.00 0.13 0.13 50 1015.2
20260503081535 11 13 4.8 9.7 0.00 0.13 0.13 66 1015.4
20260503071535 9 37 3.2 8.0 0.00 0.13 0.13 74 1015.4
20260503054556 7 142 3.2 14.5 0.05 0.08 0.13 83 1016.0
20260503053030 7 164 4.8 14.5 0.10 0.08 0.13 84 1015.7
20260503051529 7 38 4.8 17.7 0.10 0.08 0.13 84 1015.7
20260503044526 7 151 3.2 11.3 0.05 0.03 0.05 82 1015.3
20260503041528 8 0 4.8 14.5 0.00 0.03 0.03 75 1015.1
20260503040033 8 18 3.2 11.3 0.00 0.03 0.03 76 1015.0
20260503034525 8 38 6.4 9.7 0.00 0.03 0.03 77 1014.9
20260503033027 8 0 0.0 3.2 0.00 0.03 0.03 77 1014.7